Lordsburg, NM

1:40 PM MST on November 19, 2017 (GMT -0700)
Lordsburg

Weather History for KLSB - June, 2013

Change the Weather History Date:

Friday, June 14, 2013

  Actual Average Record
Temperature  
Mean Temperature 82 °F -  
Max Temperature 98 °F 96 °F 98 °F (2013)
Min Temperature 66 °F 56 °F 55 °F (2016)
Cooling Degree Days 17    
Growing Degree Days 32 (Base 50)    
Moisture  
Dew Point 39 °F    
Average Humidity 22    
Maximum Humidity 46    
Minimum Humidity 10    
Precipitation  
Precipitation 0.00 in - - ()
Sea Level Pressure  
Sea Level Pressure 29.98 in    
Wind  
Wind Speed 7 mph (West)    
Max Wind Speed 21 mph    
Max Gust Speed 26 mph    
Visibility 10 miles    
Events      
Averages and records for this station are not official NWS values.
T = Trace of Precipitation, MM = Missing Value Source: NWS Daily Summary

Daily Weather History Graph

Daily Weather History Graph

Search for Another Location

Airport or City:

Trip Planner

Search our weather history database for the weather conditions in past years. The results will help you decide how hot, cold, wet, or windy it might be!

Date:

Astronomy

Jun. 14, 2013 Rise Set
Actual Time 6:02 AM MDT 8:28 PM MDT
Civil Twilight 5:32 AM MDT 8:57 PM MDT
Nautical Twilight 4:56 AM MDT 9:33 PM MDT
Astronomical Twilight 4:16 AM MDT 10:13 PM MDT
Moon 11:27 AM MDT (6/14) No Moon Set
Length of Visible Light 15h 24m
Length of Day
14h 26m
Waxing Crescent, 31% of the Moon is Illuminated
Jun 14
Waxing Crescent
Jun 16
First Quarter
Jun 23
Full
Jun 29
Last Quarter
Jul 8
New

Hourly Weather History & Observations

Time (MDT) Temp. Dew Point Humidity Pressure Visibility Wind Dir Wind Speed Gust Speed Precip Events Conditions
12:15 AM 78.8 °F 35.6 °F 21% 30.02 in 10.0 mi Calm Calm - N/A   Clear
12:35 AM 77.0 °F 33.8 °F 21% 30.02 in 10.0 mi Calm Calm - N/A   Clear
12:55 AM 78.8 °F 33.8 °F 20% 30.02 in 10.0 mi SE 3.5 mph - N/A   Clear
1:15 AM 78.8 °F 33.8 °F 20% 30.01 in 10.0 mi SSW 6.9 mph - N/A   Clear
1:35 AM 78.8 °F 33.8 °F 20% 30.00 in 10.0 mi West 6.9 mph - N/A   Clear
1:55 AM 77.0 °F 33.8 °F 21% 29.99 in 10.0 mi West 8.1 mph - N/A   Clear
2:15 AM 75.2 °F 33.8 °F 22% 29.99 in 10.0 mi North - - N/A   Clear
2:35 AM 73.4 °F 33.8 °F 23% 29.99 in 10.0 mi North - - N/A   Clear
2:55 AM 71.6 °F 33.8 °F 25% 29.99 in 10.0 mi North - - N/A   Clear
3:15 AM 75.2 °F 33.8 °F 22% 29.99 in 10.0 mi SW 8.1 mph - N/A   Clear
3:35 AM 73.4 °F 35.6 °F 25% 29.98 in 10.0 mi North - - N/A   Clear
3:55 AM 71.6 °F 33.8 °F 25% 29.99 in 10.0 mi North - - N/A   Clear
4:15 AM 73.4 °F 41.0 °F 31% 29.99 in 10.0 mi SW 6.9 mph - N/A   Clear
4:35 AM 69.8 °F 39.2 °F 33% 29.99 in 10.0 mi SE 6.9 mph - N/A   Clear
4:55 AM 69.8 °F 42.8 °F 38% 30.00 in 10.0 mi SSE 5.8 mph - N/A   Clear
5:15 AM 69.8 °F 42.8 °F 38% 30.00 in 10.0 mi SSW 5.8 mph - N/A   Clear
5:35 AM 69.8 °F 41.0 °F 35% 30.01 in 10.0 mi Calm Calm - N/A   Clear
5:55 AM 68.0 °F 39.2 °F 35% 30.01 in 10.0 mi SE 5.8 mph - N/A   Clear
6:15 AM 66.2 °F 44.6 °F 46% 30.02 in 10.0 mi ESE 8.1 mph - N/A   Clear
6:35 AM 68.0 °F 44.6 °F 43% 30.03 in 10.0 mi SSE 4.6 mph - N/A   Clear
6:55 AM 69.8 °F 44.6 °F 40% 30.03 in 10.0 mi SSE 3.5 mph - N/A   Clear
7:15 AM 71.6 °F 46.4 °F 41% 30.04 in 10.0 mi South 5.8 mph - N/A   Clear
7:35 AM 73.4 °F 46.4 °F 38% 30.04 in 10.0 mi SSE 4.6 mph - N/A   Clear
7:55 AM 77.0 °F 46.4 °F 34% 30.04 in 10.0 mi Calm Calm - N/A   Clear
8:15 AM 80.6 °F 42.8 °F 26% 30.04 in 10.0 mi WNW 8.1 mph - N/A   Clear
8:35 AM 78.8 °F 44.6 °F 30% 30.04 in 10.0 mi North - - N/A   Clear
8:55 AM 80.6 °F 42.8 °F 26% 30.04 in 10.0 mi North - - N/A   Clear
9:15 AM 82.4 °F 42.8 °F 25% 30.04 in 10.0 mi West 8.1 mph - N/A   Clear
9:35 AM 84.2 °F 42.8 °F 23% 30.04 in 10.0 mi North - - N/A   Clear
9:55 AM 86.0 °F 42.8 °F 22% 30.04 in 10.0 mi NW 12.7 mph - N/A   Clear
10:15 AM 87.8 °F 42.8 °F 21% 30.04 in 10.0 mi West 12.7 mph - N/A   Clear
10:35 AM 87.8 °F 42.8 °F 21% 30.03 in 10.0 mi WNW 11.5 mph 21.9 mph N/A   Clear
10:55 AM 87.8 °F 42.8 °F 21% 30.03 in 10.0 mi WNW 18.4 mph - N/A   Clear
11:15 AM 89.6 °F 41.0 °F 18% 30.03 in 10.0 mi WNW 15.0 mph 19.6 mph N/A   Clear
11:35 AM 89.6 °F 41.0 °F 18% 30.02 in 10.0 mi NW 17.3 mph 25.3 mph N/A   Clear
11:55 AM 89.6 °F 41.0 °F 18% 30.02 in 10.0 mi NNW 9.2 mph - N/A   Clear
12:15 PM 89.6 °F 41.0 °F 18% 30.01 in 10.0 mi NW 10.4 mph 25.3 mph N/A   Clear
12:35 PM 91.4 °F 41.0 °F 17% 30.00 in 10.0 mi NW 17.3 mph 21.9 mph N/A   Clear
12:55 PM 91.4 °F 41.0 °F 17% 29.99 in 10.0 mi West 13.8 mph 19.6 mph N/A   Clear
1:15 PM 91.4 °F 41.0 °F 17% 29.99 in 10.0 mi NW 12.7 mph 19.6 mph N/A   Clear
1:35 PM 93.2 °F 39.2 °F 15% 29.98 in 10.0 mi WNW 6.9 mph - N/A   Clear
1:55 PM 95.0 °F 39.2 °F 14% 29.97 in 10.0 mi WSW 8.1 mph 19.6 mph N/A   Clear
2:15 PM 95.0 °F 39.2 °F 14% 29.95 in 10.0 mi NNW 10.4 mph 17.3 mph N/A   Clear
2:35 PM 96.8 °F 39.2 °F 14% 29.94 in 10.0 mi West 13.8 mph 20.7 mph N/A   Clear
2:55 PM 96.8 °F 37.4 °F 13% 29.94 in 10.0 mi West 11.5 mph 19.6 mph N/A   Clear
3:15 PM 96.8 °F 37.4 °F 13% 29.93 in 10.0 mi WSW 10.4 mph - N/A   Clear
3:35 PM 96.8 °F 37.4 °F 13% 29.92 in 10.0 mi WNW 10.4 mph - N/A   Clear
3:55 PM 96.8 °F 35.6 °F 12% 29.92 in 10.0 mi WNW 12.7 mph 16.1 mph N/A   Clear
4:15 PM 96.8 °F 33.8 °F 11% 29.91 in 10.0 mi WNW 11.5 mph 17.3 mph N/A   Clear
4:35 PM 98.6 °F 33.8 °F 10% 29.90 in 10.0 mi WNW 10.4 mph 16.1 mph N/A   Clear
4:55 PM 98.6 °F 32.0 °F 10% 29.89 in 10.0 mi West 11.5 mph 20.7 mph N/A   Clear
5:15 PM 96.8 °F 32.0 °F 10% 29.88 in 10.0 mi WSW 5.8 mph 18.4 mph N/A   Clear
5:35 PM 96.8 °F 32.0 °F 10% 29.88 in 10.0 mi NNW 11.5 mph 19.6 mph N/A   Clear
5:55 PM 95.0 °F 30.2 °F 10% 29.88 in 10.0 mi West 9.2 mph - N/A   Clear
6:15 PM 95.0 °F 32.0 °F 11% 29.88 in 10.0 mi WSW 9.2 mph - N/A   Clear
6:35 PM 95.0 °F 32.0 °F 11% 29.88 in 10.0 mi West 9.2 mph - N/A   Clear
6:55 PM 93.2 °F 35.6 °F 13% 29.89 in 10.0 mi West 13.8 mph 20.7 mph N/A   Clear
7:15 PM 93.2 °F 37.4 °F 14% 29.89 in 10.0 mi West 12.7 mph 18.4 mph N/A   Clear
7:35 PM 91.4 °F 41.0 °F 17% 29.90 in 10.0 mi West 20.7 mph - N/A   Clear
7:55 PM 91.4 °F 39.2 °F 16% 29.90 in 10.0 mi North - - N/A   Clear
8:15 PM 89.6 °F 39.2 °F 17% 29.91 in 10.0 mi North - - N/A   Clear
8:35 PM 87.8 °F 42.8 °F 21% 29.92 in 10.0 mi North - - N/A   Clear
8:55 PM 87.8 °F 42.8 °F 21% 29.92 in 10.0 mi West 16.1 mph - N/A   Clear
9:15 PM 87.8 °F 42.8 °F 21% 29.93 in 10.0 mi West 15.0 mph 26.5 mph N/A   Clear
9:35 PM 86.0 °F 42.8 °F 22% 29.94 in 10.0 mi West 15.0 mph 24.2 mph N/A   Clear
9:55 PM 86.0 °F 41.0 °F 20% 29.95 in 10.0 mi West 11.5 mph - N/A   Clear
10:15 PM 84.2 °F 41.0 °F 22% 29.95 in 10.0 mi West 12.7 mph 17.3 mph N/A   Clear
10:35 PM 82.4 °F 41.0 °F 23% 29.97 in 10.0 mi West 9.2 mph - N/A   Clear
10:55 PM 82.4 °F 41.0 °F 23% 29.98 in 10.0 mi West 12.7 mph - N/A   Clear
11:15 PM 82.4 °F 41.0 °F 23% 29.98 in 10.0 mi West 8.1 mph - N/A   Clear
11:35 PM 80.6 °F 39.2 °F 23% 29.99 in 10.0 mi North - - N/A   Clear
11:55 PM 80.6 °F 41.0 °F 24% 29.99 in 10.0 mi West 10.4 mph - N/A   Clear